When you browse on this site, cookies collect data to enhance your experience and personalize the content and advertising you see.
Visit our Privacy Policy to learn more. By continuing to use the site, you agree to this use of cookies and data.
  • In Belgium
  • List of Countries
  • For 7 days
  • Water Temperature
  • Satellite Maps
  • Weather Map
  • Weather Widgets
  • user-avatar
    Login

    Hourly Weather Ban Nam Khem

    Today, 16 January, Wednesday

    Time Temperature Precipitation Wind Pressure Humidity
    00:00 +25°C° 0.1 mm 1 mps 757 mmHg 95%
    01:00 +25°C° 0 mm 1 mps 757 mmHg 95%
    02:00 +25°C° 0.1 mm 1 mps 757 mmHg 95%
    03:00 +25°C° 0.1 mm 1 mps 757 mmHg 95%
    04:00 +25°C° 0.1 mm 1 mps 757 mmHg 95%
    05:00 +25°C° 0.1 mm 1 mps 757 mmHg 95%
    06:00 +25°C° 0.1 mm 1 mps 757 mmHg 95%
    07:00 +25°C° 0 mm 1 mps 757 mmHg 95%
    08:00 +27°C° 0 mm 1 mps 758 mmHg 86%
    09:00 +29°C° 0 mm 1 mps 758 mmHg 76%
    10:00 +31°C° 0 mm 1 mps 758 mmHg 67%
    11:00 +32°C° 0 mm 1 mps 758 mmHg 61%
    12:00 +34°C° 0 mm 1 mps 757 mmHg 56%
    13:00 +36°C° 0 mm 2 mps 757 mmHg 51%
    14:00 +35°C° 0.1 mm 2 mps 757 mmHg 55%
    15:00 +34°C° 0.1 mm 3 mps 756 mmHg 59%
    16:00 +34°C° 0.1 mm 3 mps 756 mmHg 63%
    17:00 +31°C° 0.3 mm 3 mps 756 mmHg 72%
    18:00 +29°C° 0.3 mm 3 mps 756 mmHg 82%
    19:00 +27°C° 0.3 mm 3 mps 757 mmHg 92%
    20:00 +26°C° 0.1 mm 2 mps 757 mmHg 93%
    21:00 +26°C° 0.1 mm 2 mps 757 mmHg 95%
    22:00 +25°C° 0.1 mm 2 mps 757 mmHg 96%
    23:00 +25°C° 0 mm 2 mps 757 mmHg 96%

    Tomorrow, 17 January, Thursday

    Time Temperature Precipitation Wind Pressure Humidity
    00:00 +25°C° 0 mm 2 mps 757 mmHg 96%
    01:00 +25°C° 0 mm 2 mps 757 mmHg 97%
    02:00 +25°C° 0 mm 2 mps 757 mmHg 97%
    03:00 +25°C° 0 mm 2 mps 757 mmHg 97%
    04:00 +25°C° 0 mm 2 mps 756 mmHg 97%
    05:00 +25°C° 0 mm 2 mps 756 mmHg 97%
    06:00 +25°C° 0 mm 2 mps 756 mmHg 97%
    07:00 +25°C° 0 mm 1 mps 757 mmHg 96%
    08:00 +27°C° 0 mm 1 mps 757 mmHg 86%
    09:00 +29°C° 0 mm 1 mps 757 mmHg 75%
    10:00 +31°C° 0 mm 1 mps 758 mmHg 64%
    11:00 +32°C° 0.1 mm 1 mps 757 mmHg 66%
    12:00 +32°C° 0.1 mm 1 mps 757 mmHg 67%
    13:00 +33°C° 0.1 mm 1 mps 757 mmHg 69%
    14:00 +32°C° 1.6 mm 1 mps 756 mmHg 75%
    15:00 +31°C° 1.6 mm 1 mps 756 mmHg 82%
    16:00 +29°C° 1.6 mm 1 mps 755 mmHg 89%
    17:00 +28°C° 1.9 mm 1 mps 756 mmHg 92%
    18:00 +27°C° 1.9 mm 2 mps 756 mmHg 94%
    19:00 +26°C° 1.9 mm 2 mps 757 mmHg 96%
    20:00 +26°C° 0 mm 2 mps 757 mmHg 97%
    21:00 +26°C° 0 mm 2 mps 757 mmHg 97%
    22:00 +26°C° 0 mm 2 mps 758 mmHg 97%
    23:00 +25°C° 0 mm 2 mps 758 mmHg 97%

    Day after tomorrow, 18 January, Friday

    Time Temperature Precipitation Wind Pressure Humidity
    00:00 +25°C° 0 mm 2 mps 758 mmHg 98%
    01:00 +25°C° 0 mm 2 mps 757 mmHg 98%
    02:00 +25°C° 0 mm 2 mps 757 mmHg 99%
    03:00 +25°C° 0 mm 1 mps 756 mmHg 99%
    04:00 +25°C° 0 mm 1 mps 756 mmHg 99%
    05:00 +25°C° 0 mm 1 mps 756 mmHg 98%
    06:00 +25°C° 0 mm 1 mps 757 mmHg 98%
    07:00 +25°C° 0 mm 1 mps 757 mmHg 97%
    08:00 +27°C° 0 mm 1 mps 758 mmHg 91%
    09:00 +28°C° 0 mm 1 mps 758 mmHg 84%
    10:00 +30°C° 0 mm 1 mps 759 mmHg 77%
    11:00 +31°C° 0.1 mm 1 mps 758 mmHg 75%
    12:00 +31°C° 0.1 mm 2 mps 758 mmHg 73%
    13:00 +32°C° 0.1 mm 2 mps 757 mmHg 71%
    14:00 +31°C° 1 mm 2 mps 757 mmHg 76%
    15:00 +30°C° 1 mm 2 mps 756 mmHg 81%
    16:00 +30°C° 1 mm 2 mps 755 mmHg 87%
    17:00 +29°C° 0.6 mm 2 mps 756 mmHg 90%
    18:00 +28°C° 0.6 mm 2 mps 756 mmHg 92%
    19:00 +26°C° 0.6 mm 2 mps 757 mmHg 95%
    20:00 +26°C° 0 mm 3 mps 757 mmHg 96%
    21:00 +26°C° 0 mm 3 mps 758 mmHg 96%
    22:00 +26°C° 0 mm 3 mps 759 mmHg 97%
    23:00 +26°C° 0 mm 3 mps 758 mmHg 97%

    19 January, Saturday

    Time Temperature Precipitation Wind Pressure Humidity
    00:00 +25°C° 0 mm 3 mps 758 mmHg 97%
    01:00 +25°C° 0 mm 3 mps 758 mmHg 97%
    02:00 +25°C° 0 mm 2 mps 757 mmHg 97%
    03:00 +25°C° 0 mm 2 mps 757 mmHg 98%
    04:00 +25°C° 0 mm 1 mps 756 mmHg 98%
    05:00 +25°C° 0 mm 1 mps 756 mmHg 98%
    06:00 +25°C° 0 mm 1 mps 757 mmHg 98%
    07:00 +24°C° 0 mm 1 mps 757 mmHg 98%
    08:00 +27°C° 0 mm 1 mps 758 mmHg 88%
    09:00 +29°C° 0 mm 1 mps 758 mmHg 78%
    10:00 +31°C° 0 mm 1 mps 759 mmHg 68%
    11:00 +32°C° 0 mm 2 mps 758 mmHg 65%
    12:00 +34°C° 0 mm 2 mps 758 mmHg 63%
    13:00 +35°C° 0 mm 2 mps 757 mmHg 60%
    14:00 +32°C° 1.3 mm 2 mps 756 mmHg 69%
    15:00 +31°C° 1.3 mm 2 mps 756 mmHg 78%
    16:00 +30°C° 1.3 mm 2 mps 755 mmHg 88%
    17:00 +29°C° 0.9 mm 3 mps 756 mmHg 90%
    18:00 +28°C° 0.9 mm 3 mps 756 mmHg 93%
    19:00 +26°C° 0.9 mm 3 mps 757 mmHg 95%
    20:00 +26°C° 0 mm 3 mps 757 mmHg 96%
    21:00 +26°C° 0 mm 2 mps 758 mmHg 96%
    22:00 +25°C° 0 mm 2 mps 759 mmHg 97%
    23:00 +25°C° 0 mm 2 mps 758 mmHg 97%

    20 January, Sunday

    Time Temperature Precipitation Wind Pressure Humidity
    00:00 +25°C° 0 mm 2 mps 758 mmHg 97%
    01:00 +25°C° 0 mm 2 mps 757 mmHg 98%
    02:00 +25°C° 0 mm 1 mps 757 mmHg 98%
    03:00 +25°C° 0 mm 1 mps 757 mmHg 98%
    04:00 +25°C° 0 mm 1 mps 756 mmHg 98%
    05:00 +25°C° 0 mm 1 mps 757 mmHg 98%
    06:00 +25°C° 0 mm 1 mps 757 mmHg 97%
    07:00 +24°C° 0 mm 1 mps 758 mmHg 97%
    08:00 +27°C° 0 mm 1 mps 758 mmHg 87%
    09:00 +29°C° 0 mm 1 mps 758 mmHg 76%
    10:00 +31°C° 0 mm 1 mps 759 mmHg 66%
    11:00 +33°C° 0 mm 1 mps 758 mmHg 61%
    12:00 +35°C° 0 mm 2 mps 757 mmHg 56%
    13:00 +36°C° 0 mm 2 mps 757 mmHg 51%
    14:00 +35°C° 0.2 mm 2 mps 756 mmHg 56%
    15:00 +34°C° 0.2 mm 3 mps 755 mmHg 62%
    16:00 +34°C° 0.2 mm 3 mps 755 mmHg 68%
    17:00 +31°C° 1 mm 2 mps 755 mmHg 76%
    18:00 +29°C° 1 mm 2 mps 756 mmHg 83%
    19:00 +27°C° 1 mm 1 mps 756 mmHg 90%
    20:00 +27°C° 0.2 mm 2 mps 757 mmHg 92%
    21:00 +26°C° 0.2 mm 2 mps 758 mmHg 94%
    22:00 +26°C° 0.2 mm 2 mps 758 mmHg 96%
    23:00 +26°C° 0 mm 2 mps 758 mmHg 97%

    21 January, Monday

    Time Temperature Precipitation Wind Pressure Humidity
    00:00 +25°C° 0 mm 1 mps 758 mmHg 97%
    01:00 +25°C° 0 mm 1 mps 757 mmHg 98%
    02:00 +25°C° 0 mm 1 mps 757 mmHg 98%
    03:00 +25°C° 0 mm 1 mps 757 mmHg 98%
    04:00 +25°C° 0 mm 1 mps 757 mmHg 98%
    05:00 +25°C° 0 mm 1 mps 757 mmHg 97%
    06:00 +25°C° 0 mm 1 mps 757 mmHg 97%
    07:00 +25°C° 0 mm 1 mps 758 mmHg 97%
    08:00 +27°C° 0 mm 1 mps 758 mmHg 86%
    09:00 +29°C° 0 mm 1 mps 759 mmHg 75%
    10:00 +32°C° 0 mm 1 mps 759 mmHg 64%
    11:00 +33°C° 0 mm 1 mps 759 mmHg 59%
    12:00 +35°C° 0 mm 2 mps 758 mmHg 54%
    13:00 +36°C° 0 mm 2 mps 757 mmHg 49%
    14:00 +35°C° 0.1 mm 3 mps 757 mmHg 54%
    15:00 +35°C° 0.1 mm 3 mps 756 mmHg 58%
    16:00 +34°C° 0.1 mm 3 mps 756 mmHg 63%
    17:00 +31°C° 0.3 mm 3 mps 756 mmHg 72%
    18:00 +29°C° 0.3 mm 2 mps 756 mmHg 82%
    19:00 +27°C° 0.3 mm 2 mps 757 mmHg 92%
    20:00 +27°C° 0.1 mm 2 mps 757 mmHg 94%
    21:00 +26°C° 0.1 mm 2 mps 758 mmHg 95%
    22:00 +26°C° 0.1 mm 2 mps 758 mmHg 97%
    23:00 +26°C° 0 mm 2 mps 758 mmHg 97%
    Show more